User: anonymous   Login
Location: Dompnac
(44.5644°N, 4.1026°E)
Time: 05:31:50
(UTC+00:00)
Language:

Meteor 1-15 Rocket - Orbit

View from above orbital plane
View from above orbital plane
View from above satellite
View from above satellite

Ground track
Ground track

The orbit data is extracted from the following two-line orbital elements,

1  6660U 73034B   20333.42438631  .00000010  00000-0 -19846-5 0  9992
2  6660  81.2326 225.5705 0047503 147.5206 212.8902 14.05854002435467
Epoch (UTC): 28 November 2020 10:11:06
Eccentricity: 0.0047503
inclination: 81.2326°
perigee height: 839 km
apogee height: 908 km
right ascension of ascending node: 225.5705°
argument of perigee: 147.5206°
revolutions per day: 14.05854002
mean anomaly at epoch: 212.8902°
orbit number at epoch: 43546

The dashed part of the orbit path shows where the satellite is in the earth's shadow,  

DLR